Погода в Верх-Карагуже

Россия / Республика Алтай     52°03′20″N   86°03′06″E
темп.,
°C
ветер,
м/с
пор.,
м/с
влажн.,
%
обл.,
%
осадки,
мм/ч
давл.,
гПа
погр.,
м
12 апреля, пн
пн1201:000ю119686 0.0 103740
04:00−1ююв119640 0.0 103614
07:00−2ююв219510 0.0 103620
10:00+4вюв128739 0.0 1034166
13:00+7ссз117940 0.1 1032342
16:00+7сз118740 0.0 1031219
19:00+3сз2210096 0.1 1032111
22:00+1юз1199100 0.1 1033100
13 апреля, вт
вт1301:00+2юз1196100 0.1 103133
04:00+2зсз1195100 0.1 103016
07:00+1зсз119597 0.1 103012
10:00+3сз2290100 0.0 1029256
13:00+3зсз3775100 0.0 1030588
16:00+1зсз2799100 2.1 1032370
19:000з1399100 2.8 1034194
22:000зюз1199100 0.3 1036138
14 апреля, ср
ср1401:00−1зюз239668 0.4 1036122
04:000зюз1592100 0.0 1036211
07:00−2зсз129467 0.1 1037145
10:00+1зсз128549 0.0 1037465
13:00+3сз237520 0.0 1034627
16:00+4сз2374100 0.0 1032513
19:00+2ссз1288100 0.0 1031140
22:00+2юв1191100 0.0 103018
15 апреля, чт
чт1501:00+2ю2292100 0.0 102925
04:00+1ююз328496 0.0 102832
07:00+1ююз228254 0.0 102826
10:00+7с116592 0.0 1027327
13:00+9с22595 0.0 1026756
16:00+9ссз21605 0.0 1024654
19:00+7ссз227224 0.0 1024229
22:00+4ю118153 0.0 102410
16 апреля, пт
пт1601:00+3ююз118259 0.0 102310
04:00+2ю118619 0.0 102210
07:00+2ю22875 0.0 102219
10:00+9юв11655 0.0 1020395
13:00+13с22535 0.0 1018913
16:00+14с22515 0.0 1016982
19:00+11с23660 0.0 1015225
22:00+7юв11820 0.0 101610